SZ-19 DEB, 63801

Orbit data source: Space-Track

SZ-19 DEB, 63801 is space debris in LEO originally from a launch on Tue, 29 Oct 2024 UTC launched from the Jiuquan Satellite Launch Center, China (JSC). Debris objects in space refer to the collection of defunct objects orbiting the Earth. Examples of debris include non-operational satellites, rocket bodies, and fragments generated from explosions, collisions, or faulty payload assembly.

Loading next visibility...
Identifier
63801, 2024-194E
Orbit
LEO
Country
Flag of CNCN / PRC
Related business
Manufacturer
CAST
Mission
Civil Spaceship
Bus & Motor
SHENZHOU OM, Unknown motor
Mass
~1,842 kg wet, ~1,500 kg dry
Launch date (UTC)
2024-10-29 (1 year ago)
Launch vehicle
Unknown
Launch site
Jiuquan Satellite Launch Center, China (JSC)
Object type
Payload
Rocket body
Debris
Shape & HBR
Cyl + 2 Pan, 2.1 m
Radar Cross Section
9.277 m², Large (>1 m²)

Expand to show TLE details & history
Last TLE update: 18 hours ago

TLE from 18 hours ago
0 SZ-19 DEB
1 63801U 24194E   25308.97494367  .00058374  00000-0  36618-3 0  9999
2 63801  41.4711 233.1956 0013289 226.4802 133.4938 15.75736052 29366
Epoch: 2025-11-04T23:23Z
TLE epoch observation values (Epoch: 2025-11-04T23:23:55.133Z)
Latitude
-0.00004°
Longitude
-162.23842°
Altitude
348.287 km
Speed
7.698 km/s
True Right ascension
15h 32m 46s
True Declination
0° 00' 00"
Sunlit
Object was in daylight at epoch
Visualization orbit readout
Latitude
Unknown
Longitude
Unknown
Altitude
Unknown
Speed
Unknown
Apparent Right ascension
Unknown
Apparent Declination
Unknown
Sunlit
N/A
Visualization observer readout
Local Sidereal Time
13:40:35
Azimuth
Unknown
Elevation
Unknown
Doppler factor
Unknown
Orbital elements
Apogee altitude
353.718 km
Perigee altitude
335.85 km
Semi-major axis
6,722.921 km
Eccentricity
0.00133
Inclination
41.4711°
RAAN
233.1956°
Arg. of periapsis
226.4802°
True anomaly
133.60415°
Mean anomaly
133.4938°
Eccentric anomaly
133.54899°
Mean motion
3.93737 °/min
Orbital period
91.43 mins
BSTAR
0.00036618
Loading maneuver chart data...
Computing Atmospheric mass density...
Loading historical data...
Loading historical data...
Loading historical data...
Loading historical data...
Loading historical data...
Loading historical data...
Loading historical data...

Documentation

Showing up to 5 results
|